一网星座-0053星 (ONEWEB-0053 )

导读

ONEWEB-0053由英国发射于2020年2月6日,是OneWeb低轨卫星互联网星座计划组网卫星之一。该星座旨在构建全球覆盖的卫星通信网络,为偏远地区、航空海运等场景提供宽带互联网服务,ONEWEB-0053的成功入轨,推进了OneWeb星座的全球组网进程。

Basic Information
目录编号:
45157
目录名称:
ONEWEB-0053
国际标识:
2020-008AC
轨道中心:
EARTH
卫星名称:
一网星座-0053星
卫星全名:
一网星座-0053星 (ONEWEB-0053 )
卫星状态:
在轨 (已飞行2409 天)
发射日期:
2020-02-06 UTC
国别 :
英国 (GB)
星等 :
--
This satellite is enrolled in the Space Conjunction Data Service (SCDS) and the current flight risk assessment level is: No High Risk
Orbit Information
数据来源 国际轨道数据 AOE轨道数据
星历时间 2026-09-11T01:17:22+0800
19小时前
查看轨道信息
2026-09-06T06:00:00+0800
5天前
查看轨道信息
半长轴 7599.849km 7599.878km
偏心率 0.0002066 0.0001856
轨道倾角 87.889° 87.886°
近地点辐角 109.941° 113.099°
升交点赤经 19.248° 20.201°
平近点角 250.194° 279.109°
近地点 1220.141km 1220.33km
远地点 1223.283km 1223.152km
周期 109.892分钟 109.893分钟
每日圈数 13.103743 13.103669
Detailed Information
平衡模式:
三轴稳定
覆盖范围:
全球
运营商:
一网卫星公司
运营商所在国:
英国
制造商(研发单位):
一网卫星公司
制造商所在国:
英国
使用方式:
暂无
Satellite Introduction
OneWeb卫星网络由648颗重约125公斤的微型卫星组成,运行在1200公里的轨道上。 每颗卫星都能够提供至少每秒8千兆位的吞吐量,以使用其高吞吐量的Ku频段有效载荷为家庭和移动平台提供互联网接入。该卫星仍在工作。
2D Orbit Map
3D Orbit Map
Orbit Altitude Analysis Chart
Orbit Inclination Analysis Chart
Orbit Comprehensive Analysis Chart
View Comprehensive Chart
Miss Distance Evolution Trend with All Objects
Collision Probability Evolution Trend with All Objects